Regional Weather Roundup
Issued by NWS

Home | Current Version | Previous Version | Graphics & Text | Print | Product List | Glossary Off
Versions: 1 2 3 4 5 6 7 8 9 10 11 12 13 14 15 16 17 18 19 20 21 22 23 24 25 26 27 28 29 30 31 32 33 34 35 36 37 38 39 40 41 42 43 44 45 46 47 48 49 50

000
ASUS43 KMPX 062310
RWRMN
WEATHER ROUNDUP FOR MINNESOTA
NATIONAL WEATHER SERVICE TWIN CITIES/CHANHASSEN MN
600 PM CDT FRI MAY 06 2016


NOTE: "FAIR" INDICATES FEW OR NO CLOUDS BELOW 12,000 FEET WITH NO
SIGNIFICANT WEATHER AND/OR OBSTRUCTIONS TO VISIBILITY. N/A MEANS
CURRENT SKY AND/OR WEATHER CONDITIONS ARE NOT AVAILABLE.

MNZ060>063-068>070-070000-
   Twin Cities Metro

CITY           SKY/WX    TMP DP  RH WIND       PRES   REMARKS
TWIN CITIES    MOSUNNY   90  50  25 W13       29.62F
ST PAUL        SUNNY     88  52  29 SW15G22   29.62F
CRYSTAL        SUNNY     91  51  25 W14G24    29.62F
BLAINE         MOSUNNY   91  48  22 W13G18    29.63F
EDEN PRAIRIE   SUNNY     90  52  27 W17G25    29.63F
SOUTH ST PAUL  SUNNY     90  47  22 SW9       29.62F
LAKE ELMO      FAIR      88  52  29 SW14      29.64F
$$
MNZ001>005-007-008-013>017-022>024-027-028-070000-
   Northwest Minnesota

CITY           SKY/WX    TMP DP  RH WIND       PRES   REMARKS
BEMIDJI        MOSUNNY   69  43  39 NW20G25   29.81R
HALLOCK        MOSUNNY   63  23  22 N18       29.94R
ROSEAU         CLOUDY    63  25  23 N16       29.91R
WARROAD        CLOUDY    63  34  34 NW14G23   29.91R
THIEF RVR FALL CLOUDY    63  28  27 N25G32    29.92R
CROOKSTON      CLOUDY    63  30  29 N20G26    29.93R
FOSSTON        MOSUNNY   63  32  31 N28G37    29.88R
DETROIT LAKES  SUNNY     72  41  33 N13G22    29.83S
MOORHEAD       SUNNY     73  39  29 N30       29.85R
PARK RAPIDS    SUNNY     75  43  31 N23G33    29.77S
MAHNOMEN       FAIR      67  35  30 N24G35    29.85R
$$
MNZ006-009>011-018-025>026-070000-
   North Central Minnesota

CITY           SKY/WX    TMP DP  RH WIND       PRES   REMARKS
BAUDETTE       CLOUDY    61  28  28 N21G30    29.87R
FLAG ISLAND    CLOUDY    59  28  31 NW30      29.87R
INTL FALLS     HAZE      61  34  36 NW16G30   29.83R VSB 1/4
WASKISH        PTSUNNY   61  45  55 NW16G25   29.85R
BIG FORK       SUNNY     72  45  37 NW12G25   29.78R
LONGVILLE      SUNNY     73  45  35 NW14G24   29.75R
GRAND RAPIDS   SUNNY     73  45  35 NW21G31   29.74R
CRANE LAKE       N/A     68  45  42 NW15G23   29.74R HAZE
ORR            SUNNY     72  43  35 NW14G21   29.71R
COOK           SUNNY     75  46  35 NW13G22   29.72R
WALKER         FAIR      72  44  36 N17G31    29.78R
$$
MNZ012-019>021-037-070000-
   Northeast Minnesota

CITY           SKY/WX    TMP DP  RH WIND       PRES   REMARKS
DULUTH         CLOUDY    74  55  51 W16       29.64S
ELY            SUNNY     75  45  33 NW14G25   29.68R
HIBBING        MOSUNNY   75  46  35 N23G35    29.69R
EVELETH        CLOUDY    77  43  29 NW20G30   29.70R HAZE
DULUTH HARBOR  CLOUDY    73  57  56 SW13      29.60F
TWO HARBORS      N/A     81  57  44 W10       29.58F THUNDER
SILVER BAY     TSTM      73  55  53 SW6       29.57R
GRAND MARAIS     N/A     49  46  90 S6        29.54S
G MARAIS ARPRT MOSUNNY   82  39  21 W12G18    29.60R
$$
MNZ029>031-032-039>041-046>048-054>057-064-070000-
   West Central Minnesota

CITY           SKY/WX    TMP DP  RH WIND       PRES   REMARKS
FERGUS FALLS   SUNNY     75  45  33 N17G31    29.76R
WHEATON        CLOUDY    79  46  31 N25G36    29.82R
MORRIS         CLOUDY    81  45  28 N31G37    29.75R
ALEXANDRIA     SUNNY     80  48  32 N20G31    29.76R
ELBOW LAKE     FAIR      77  48  35 N20G28    29.78R
WADENA         SUNNY     77  46  33 N18       29.76R
GLENWOOD       SUNNY     84  46  26 N29       29.74
APPLETON       PTSUNNY   81  41  24 N28G39    29.75R
BENSON         CLOUDY    86  43  22 N17G28    29.72R
ORTONVILLE     CLOUDY    79  43  27 N28G33    29.78R
MADISON        CLOUDY    82  43  24 N26G33    29.75R
WILLMAR        FAIR      90  50  25 N12       29.70F
$$
MNZ033>034-036-042>043-049>051-058-059-070000-
   Central Minnesota

CITY           SKY/WX    TMP DP  RH WIND       PRES   REMARKS
ST CLOUD       SUNNY     88  51  28 W15       29.66F
SAUK CENTRE      N/A     84  52  33 NW14G22   29.71R
PAYNESVILLE    CLOUDY    90  44  20 NW12G18   29.69F
AITKIN         CLOUDY    79  48  34 NW10G22   29.69S
PINE RIVER     SUNNY     75  50  41 N13G28    29.78R
BRAINERD       SUNNY     81  47  30 N20G30    29.70R
STAPLES        MOSUNNY   79  43  27 N22G30    29.74R
LONG PRAIRIE   FAIR      82  48  30 NW16G24   29.72R
LITTLE FALLS   SUNNY     86  45  23 NW12G21   29.69R
LITCHFIELD     SUNNY     88  48  25 NW9       29.69S
BUFFALO        SUNNY     87  49  27 W13G18    29.67S
MAPLE LAKE     SUNNY     87  53  31 W12G17    29.67S
HUTCHINSON     MOSUNNY   88  52  29 NW13      29.70S
$$
MNZ037-044-045-052-053-070000-
   East Central Minnesota

CITY           SKY/WX    TMP DP  RH WIND       PRES   REMARKS
PRINCETON      SUNNY     90  52  27 W12       29.65S
MORA           SUNNY     86  52  30 W8        29.66F
CAMBRIDGE        N/A     90  63  40 W13G18    29.64R HX  90
RUSH CITY      SUNNY     87  53  30 W7        29.65R
MOOSE LAKE     TSTM      73  55  53 CALM      29.65R
HINCKLEY       FAIR      84  54  34 W8        29.64S
CLOQUET        CLOUDY    73  52  46 W9G16     29.66R
MCGREGOR       CLOUDY    79  50  36 NW12G20   29.69R
$$
MNZ071>073-080-081-089-090-097-098-070000-
   Southwest Minnesota

CITY           SKY/WX    TMP DP  RH WIND       PRES   REMARKS
MONTEVIDEO     CLOUDY    86  48  26 N20G28    29.74R
GRANITE FALLS  PTSUNNY   92  47  20 NW15      29.72S
CANBY          MOSUNNY   83  51  32 NW17G28   29.77R
MARSHALL       CLOUDY    89  45  21 NW13      29.73S
REDWOOD FALLS  CLOUDY    89  43  20 NW7G18    29.70S
OLIVIA         MOSUNNY   81  41  24 NW12G17   29.69F
PIPESTONE      MOSUNNY   88  36  15 NW8G26    29.78S
WINDOM         SUNNY     88  45  22 W20G25    29.75S
WORTHINGTON    SUNNY     87  49  26 SW20G29   29.78F
JACKSON        SUNNY     86  32  14 W21       29.78S
TRACY          CLOUDY    91  46  21 NW16G22   29.74S
SLAYTON        SUNNY     86  42  20 W14G21    29.78R
$$
MNZ065>067-074>077-082>085-091>093-070000-
   South Central Minnesota

CITY           SKY/WX    TMP DP  RH WIND       PRES   REMARKS
MANKATO        MOSUNNY   90  46  22 W24G30    29.69F
NEW ULM        MOSUNNY   88  46  23 NW15      29.69F
ST JAMES       MOSUNNY   84  43  23 SW23      29.72F
FAIRMONT       MOSUNNY   88  28  11 SW20G26   29.74F
GLENCOE        SUNNY     90  53  28 W18G25    29.67R
FARIBAULT      MOSUNNY   90  45  20 SW15G26   29.69F
OWATONNA       MOSUNNY   90  37  15 SW23G32   29.71F
WASECA         MOSUNNY   88  43  20 SW25G36   29.72F
ALBERT LEA     SUNNY     88  39  18 W20G30    29.74F
$$
MNZ078>079-086>088-094>096-070000-
   Southeast Minnesota

CITY           SKY/WX    TMP DP  RH WIND       PRES   REMARKS
ROCHESTER      SUNNY     87  43  21 SW22G31   29.74F
RED WING       MOSUNNY   91  39  16 W15G26    29.64F
STANTON        MOSUNNY   89  43  20 SW24G31   29.65F
DODGE CENTER   SUNNY     88  39  18 W24G32    29.73F
WINONA         SUNNY     90  39  17 SW10G18   29.70F
AUSTIN         SUNNY     84  41  21 SW17G26   29.75F
PRESTON        SUNNY     85  39  19 SW16G24   29.76F
$$
ABBREVIATIONS USED IN REMARKS
   TC - TEMPERATURES IN CELSIUS
  WCI - WIND CHILL INDEX
   HX - HEAT INDEX
  VSB - VISIBILITY
$$




USA.gov is the U.S. government's official web portal to all federal, state and local government web resources and services.